Linden, NJ

3:17 PM EST on January 19, 2018 (GMT -0500)
Linden

Weather History for KLDJ - March, 2013

Change the Weather History Date:

Wednesday, March 27, 2013

  Actual Average (KEWR) Record (KEWR)
Temperature  
Mean Temperature 45 °F -  
Max Temperature 55 °F 54 °F 84 °F (1998)
Min Temperature 35 °F 35 °F 22 °F (2014)
Degree Days  
Heating Degree Days 20    
Moisture  
Dew Point 27 °F    
Average Humidity 52    
Maximum Humidity 70    
Minimum Humidity 28    
Precipitation  
Precipitation 0.00 in - - ()
Sea Level Pressure  
Sea Level Pressure 29.92 in    
Wind  
Wind Speed 10 mph (WNW)    
Max Wind Speed 17 mph    
Max Gust Speed 37 mph    
Visibility 10 miles    
Events Rain    
Averages and records for this station are not official NWS values.
T = Trace of Precipitation, MM = Missing Value Source: NWS Daily Summary

Daily Weather History Graph

Daily Weather History Graph

Search for Another Location

Airport or City:

Trip Planner

Search our weather history database for the weather conditions in past years. The results will help you decide how hot, cold, wet, or windy it might be!

Date:

Astronomy

Mar. 27, 2013 Rise Set
Actual Time 6:48 AM EDT 7:16 PM EDT
Civil Twilight 6:21 AM EDT 7:44 PM EDT
Nautical Twilight 5:48 AM EDT 8:16 PM EDT
Astronomical Twilight 5:15 AM EDT 8:49 PM EDT
Moon 7:57 PM EDT (3/27) 6:37 AM EDT (3/27)
Length of Visible Light 13h 23m
Length of Day
12h 28m
Full, 100% of the Moon is Illuminated
Mar 27
Full
Apr 3
Last Quarter
Apr 10
New
Apr 18
First Quarter
Apr 25
Full

Hourly Weather History & Observations

Time (EDT) Temp. Windchill Dew Point Humidity Pressure Visibility Wind Dir Wind Speed Gust Speed Precip Events Conditions
12:15 AM 41.4 °F 37.6 °F 30.0 °F 64% 29.88 in 10.0 mi WNW 5.8 mph - N/A   Clear
12:35 AM 41.2 °F 36.6 °F 30.6 °F 66% 29.88 in 10.0 mi WNW 6.9 mph - N/A   Clear
12:55 AM 40.8 °F 36.2 °F 30.9 °F 68% 29.88 in 10.0 mi WNW 6.9 mph - N/A   Clear
1:15 AM 40.1 °F 34.7 °F 31.1 °F 70% 29.89 in 10.0 mi WNW 8.1 mph - N/A   Clear
1:55 AM 40.1 °F 34.1 °F 30.2 °F 68% 29.89 in 10.0 mi WNW 9.2 mph - N/A   Clear
2:15 AM 39.9 °F 34.5 °F 29.3 °F 66% 29.89 in 10.0 mi WNW 8.1 mph - N/A   Clear
2:35 AM 39.0 °F 32.8 °F 28.9 °F 67% 29.89 in 10.0 mi WNW 9.2 mph - N/A   Clear
3:15 AM 39.0 °F 32.3 °F 26.6 °F 61% 29.88 in 10.0 mi WNW 10.4 mph - N/A   Clear
3:35 AM 38.7 °F 31.4 °F 25.9 °F 60% 29.87 in 10.0 mi WNW 11.5 mph - N/A   Clear
3:55 AM 38.5 °F 32.7 °F 25.2 °F 59% 29.87 in 10.0 mi WNW 8.1 mph - N/A   Clear
4:15 AM 38.3 °F 31.9 °F 24.8 °F 58% 29.87 in 10.0 mi WNW 9.2 mph - N/A   Clear
4:35 AM 37.9 °F 30.9 °F 24.6 °F 59% 29.88 in 10.0 mi WNW 10.4 mph - N/A   Clear
4:55 AM 37.6 °F 30.5 °F 24.4 °F 59% 29.88 in 10.0 mi WNW 10.4 mph - N/A   Clear
5:15 AM 37.6 °F 31.6 °F 24.1 °F 58% 29.88 in 10.0 mi WNW 8.1 mph - N/A   Clear
5:35 AM 36.5 °F 31.0 °F 24.4 °F 62% 29.89 in 10.0 mi West 6.9 mph - N/A   Clear
5:55 AM 36.0 °F 29.6 °F 24.6 °F 63% 29.90 in 10.0 mi West 8.1 mph - N/A   Clear
6:15 AM 36.1 °F 29.9 °F 24.4 °F 63% 29.91 in 10.0 mi West 8.1 mph - N/A   Clear
6:35 AM 35.6 °F 29.2 °F 24.6 °F 64% 29.91 in 10.0 mi West 8.1 mph - N/A   Clear
6:55 AM 35.6 °F 29.2 °F 24.8 °F 65% 29.91 in 10.0 mi West 8.1 mph - N/A   Clear
7:15 AM 36.0 °F 29.6 °F 25.2 °F 65% 29.92 in 10.0 mi West 8.1 mph - N/A   Scattered Clouds
7:35 AM 36.9 °F 30.7 °F 25.3 °F 63% 29.92 in 10.0 mi West 8.1 mph - N/A   Scattered Clouds
7:55 AM 37.6 °F 31.0 °F 25.5 °F 62% 29.93 in 10.0 mi West 9.2 mph - N/A   Clear
8:15 AM 39.0 °F 32.8 °F 26.6 °F 61% 29.93 in 10.0 mi West 9.2 mph - N/A   Clear
8:35 AM 40.5 °F 33.2 °F 27.7 °F 60% 29.93 in 10.0 mi WNW 12.7 mph - N/A   Clear
8:55 AM 41.9 °F 34.6 °F 28.9 °F 60% 29.94 in 10.0 mi WNW 13.8 mph 19.6 mph N/A   Clear
9:15 AM 43.2 °F 36.6 °F 29.7 °F 59% 29.94 in 10.0 mi WNW 12.7 mph 19.6 mph N/A   Clear
9:35 AM 44.6 °F 38.8 °F 29.7 °F 56% 29.94 in 10.0 mi NW 11.5 mph 21.9 mph N/A   Clear
9:55 AM 45.7 °F 39.1 °F 29.3 °F 53% 29.93 in 10.0 mi WNW 15.0 mph 28.8 mph N/A   Clear
10:15 AM 46.6 °F - 29.3 °F 51% 29.93 in 10.0 mi WNW 15.0 mph 24.2 mph N/A   Clear
10:35 AM 47.3 °F - 28.9 °F 49% 29.93 in 10.0 mi NW 13.8 mph 18.4 mph N/A   Clear
10:55 AM 48.4 °F - 28.9 °F 47% 29.93 in 10.0 mi WNW 11.5 mph 20.7 mph N/A   Clear
11:15 AM 49.1 °F - 29.5 °F 47% 29.93 in 10.0 mi WNW 12.7 mph - N/A   Clear
11:35 AM 50.2 °F - 29.8 °F 46% 29.93 in 10.0 mi West 13.8 mph 17.3 mph N/A   Clear
11:55 AM 50.2 °F - 29.8 °F 46% 29.92 in 10.0 mi WNW 11.5 mph 17.3 mph N/A   Scattered Clouds
12:15 PM 50.0 °F - 28.2 °F 43% 29.92 in 10.0 mi WNW 13.8 mph 17.3 mph N/A   Scattered Clouds
12:35 PM 50.5 °F - 27.3 °F 41% 29.91 in 10.0 mi WNW 8.1 mph 19.6 mph N/A   Mostly Cloudy
1:15 PM 51.4 °F - 24.4 °F 35% 29.90 in 10.0 mi West 12.7 mph 17.3 mph N/A   Mostly Cloudy
1:35 PM 51.8 °F - 26.1 °F 37% 29.90 in 10.0 mi WNW 9.2 mph 17.3 mph N/A   Mostly Cloudy
1:55 PM 50.5 °F - 24.8 °F 37% 29.91 in 10.0 mi NW 12.7 mph 29.9 mph N/A   Mostly Cloudy
2:15 PM 48.2 °F - 27.7 °F 45% 29.91 in 10.0 mi WNW 17.3 mph 36.8 mph N/A Rain Light Rain
2:35 PM 50.7 °F - 25.0 °F 37% 29.89 in 10.0 mi Calm Calm - N/A   Scattered Clouds
2:55 PM 51.3 °F - 22.5 °F 32% 29.88 in 10.0 mi North 11.5 mph - N/A   Mostly Cloudy
3:15 PM 53.6 °F - 22.8 °F 30% 29.88 in 10.0 mi North 5.8 mph - N/A   Scattered Clouds
3:35 PM 55.0 °F - 24.3 °F 30% 29.88 in 10.0 mi WNW 15.0 mph 21.9 mph N/A   Scattered Clouds
3:55 PM 54.3 °F - 22.5 °F 29% 29.88 in 10.0 mi NNW 12.7 mph 20.7 mph N/A   Mostly Cloudy
4:15 PM 53.8 °F - 21.0 °F 28% 29.88 in 10.0 mi WNW 16.1 mph 20.7 mph N/A   Scattered Clouds
4:35 PM 54.5 °F - 22.6 °F 29% 29.88 in 10.0 mi NNW 11.5 mph 17.3 mph N/A   Scattered Clouds
4:55 PM 54.5 °F - 23.0 °F 29% 29.88 in 10.0 mi WNW 16.1 mph 21.9 mph N/A   Mostly Cloudy
5:15 PM 52.7 °F - 22.5 °F 31% 29.88 in 10.0 mi NW 8.1 mph 23.0 mph N/A   Overcast
5:35 PM 53.8 °F - 22.5 °F 30% 29.89 in 10.0 mi WNW 13.8 mph 21.9 mph N/A   Scattered Clouds
6:15 PM 51.6 °F - 26.2 °F 37% 29.91 in 10.0 mi WNW 16.1 mph 25.3 mph N/A   Scattered Clouds
6:35 PM 50.9 °F - 27.1 °F 40% 29.91 in 10.0 mi WNW 15.0 mph 20.7 mph N/A   Clear
7:15 PM 48.2 °F - 29.3 °F 48% 29.93 in 10.0 mi West 15.0 mph 23.0 mph N/A   Clear
7:35 PM 47.3 °F - 30.7 °F 53% 29.93 in 10.0 mi West 15.0 mph - N/A   Clear
7:55 PM 46.8 °F - 30.2 °F 53% 29.95 in 10.0 mi West 13.8 mph 19.6 mph N/A   Clear
8:15 PM 46.6 °F - 29.7 °F 52% 29.96 in 10.0 mi WNW 15.0 mph 18.4 mph N/A   Scattered Clouds
8:35 PM 46.4 °F 41.1 °F 29.8 °F 53% 29.96 in 10.0 mi WNW 11.5 mph - N/A   Overcast
8:55 PM 45.5 °F 40.8 °F 29.5 °F 54% 29.97 in 10.0 mi WNW 9.2 mph - N/A   Scattered Clouds
9:15 PM 45.5 °F 39.6 °F 29.3 °F 53% 29.97 in 10.0 mi WNW 12.7 mph - N/A   Clear
9:35 PM 45.1 °F 39.5 °F 29.8 °F 55% 29.98 in 10.0 mi WNW 11.5 mph - N/A   Clear
9:55 PM 44.8 °F 38.7 °F 29.8 °F 56% 29.98 in 10.0 mi WNW 12.7 mph - N/A   Clear
10:15 PM 44.6 °F 38.4 °F 30.2 °F 57% 29.99 in 10.0 mi WNW 12.7 mph 20.7 mph N/A   Clear
10:35 PM 44.1 °F 37.7 °F 30.7 °F 59% 29.99 in 10.0 mi WNW 12.7 mph - N/A   Scattered Clouds
10:55 PM 43.3 °F 36.8 °F 31.6 °F 63% 29.99 in 10.0 mi WNW 12.7 mph - N/A   Clear
11:15 PM 42.8 °F 37.0 °F 31.8 °F 65% 29.99 in 10.0 mi WNW 10.4 mph - N/A   Scattered Clouds
11:35 PM 42.8 °F 37.0 °F 31.6 °F 65% 29.99 in 10.0 mi WNW 10.4 mph 17.3 mph N/A   Mostly Cloudy
11:55 PM 42.6 °F 36.8 °F 31.3 °F 64% 29.99 in 10.0 mi WNW 10.4 mph - N/A   Mostly Cloudy